Lid_Strength_Index
1 1 2 2 2 2 2 2 2 2 2 2 2 2 2 3 3 3 3 3 3 4 4 4 4 3 5 8 7 3 -2 -2 4 6 9 11 13 13 14 14 14 14 13 12 10 10 12
1 1 1 1 2 2 2 2 2 2 2 2 2 2 3 3 3 3 3 3 4 4 4 4 3 2 4 9 4 2 2 2 4 7 8 10 11 11 12 13 15 12 13 12 12 12 11
2 2 2 2 2 2 2 2 2 2 2 2 2 3 3 3 3 3 3 4 4 4 4 3 2 3 5 8 4 3 3 2 3 4 7 7 8 10 10 12 11 12 13 12 12 11 11
2 2 2 2 2 2 2 3 3 2 3 3 3 3 3 3 3 3 3 3 3 3 3 2 2 4 8 3 3 3 3 4 4 4 7 7 8 10 12 11 11 13 15 16 12 11 9
3 2 2 3 3 3 3 3 3 3 3 3 3 3 3 3 3 3 3 3 3 3 2 2 4 5 7 1 3 2 6 6 6 5 6 5 9 11 11 13 15 14 17 15 13 11 11
3 3 3 3 3 3 3 3 3 3 3 3 3 3 3 3 3 3 3 3 3 4 2 2 3 7 5 5 3 3 5 5 6 6 6 8 10 12 13 15 17 15 15 15 14 11 11
2 2 2 2 2 3 3 3 2 2 2 2 2 2 3 3 2 3 5 6 6 7 5 5 5 5 4 2 3 5 4 5 5 7 10 9 12 13 12 12 12 12 13 14 12 10 12
2 2 2 2 2 2 2 2 2 2 2 2 2 2 2 2 3 3 6 8 4 6 9 5 4 4 2 2 5 5 4 7 8 10 9 10 12 9 9 10 11 12 13 13 12 11 12
2 2 2 2 3 3 3 3 2 2 2 2 2 2 2 3 3 6 8 5 2 5 9 6 5 5 4 5 6 6 6 8 9 10 10 11 10 8 8 9 9 11 11 11 12 10 12
2 2 2 2 3 3 2 2 2 2 2 2 3 3 3 3 4 5 6 3 5 6 11 8 6 5 6 6 7 4 5 7 9 10 11 11 7 8 11 12 9 12 9 9 10 13 15
2 2 2 3 3 3 3 3 3 3 3 3 3 3 3 4 7 8 4 5 6 5 17 7 6 3 5 7 6 6 4 5 8 8 8 10 10 12 13 12 10 10 8 9 10 13 14
2 3 3 3 3 3 3 3 3 3 3 3 3 3 3 4 6 5 4 4 5 11 16 8 7 7 8 6 7 7 7 5 5 8 9 9 9 11 12 11 10 10 9 10 11 14 17
3 3 3 3 3 3 3 3 3 3 3 3 3 3 3 4 6 5 4 6 12 16 8 11 9 8 8 9 9 8 9 10 11 12 12 10 10 9 9 12 11 12 13 18 18 19 19
3 3 3 3 3 3 3 3 3 3 3 4 4 4 5 4 6 5 5 8 15 10 11 8 8 8 10 10 10 9 10 12 10 11 13 14 14 10 8 10 12 12 12 18 22 21 19
2 3 3 3 3 3 3 4 4 4 4 4 5 6 6 3 4 4 6 13 13 10 10 8 8 10 11 10 11 11 10 11 10 11 14 14 13 8 8 8 10 12 14 10 16 16 18
3 3 3 3 3 3 3 4 4 4 4 5 6 5 5 3 2 5 9 11 10 8 7 7 10 9 11 10 10 11 11 9 9 8 10 11 14 9 8 8 8 10 9 14 15 21 21
3 3 3 3 3 3 3 3 4 4 4 5 5 6 4 4 4 7 11 11 9 7 6 8 9 10 10 10 10 11 10 9 8 8 8 11 13 12 10 11 12 11 13 12 14 15 19
3 3 3 3 3 3 3 3 4 4 5 4 5 8 3 4 8 10 12 8 8 7 6 6 7 8 9 9 10 10 9 9 7 7 10 9 13 14 12 9 7 9 12 12 17 17 15
3 3 3 3 3 3 4 4 4 4 5 7 7 6 3 6 11 11 10 9 8 7 7 7 7 7 7 9 12 9 8 7 6 7 10 10 13 17 14 11 9 11 10 11 12 13 17
3 3 3 3 3 3 4 4 4 4 5 6 6 9 8 8 9 10 10 9 9 6 6 6 7 6 8 10 9 10 9 7 6 6 5 7 12 14 17 14 11 13 11 10 13 17 16
3 3 3 3 3 3 3 3 3 4 5 4 6 8 9 11 10 10 10 8 8 8 6 6 8 8 9 12 10 10 9 9 7 6 8 9 13 12 11 10 10 11 11 11 13 14 17
3 3 3 3 3 3 3 3 3 4 5 5 8 8 8 9 8 9 10 10 9 8 8 8 9 8 9 11 10 11 10 11 11 9 10 10 13 12 13 10 10 12 11 11 11 12 12
3 3 3 3 3 3 3 3 3 3 5 8 5 5 7 8 9 9 10 8 8 9 8 7 7 9 9 8 7 8 9 10 9 10 10 11 12 14 16 11 11 15 13 12 12 10 12
3 3 3 3 3 3 3 3 3 3 4 8 7 7 8 9 8 8 7 7 8 8 9 7 8 9 6 6 7 9 9 9 9 9 9 11 12 13 15 14 19 12 9 9 10 10 10
3 3 3 3 3 2 2 2 2 2 2 7 8 7 9 11 7 7 7 8 8 9 9 8 7 7 6 7 10 11 11 11 9 8 9 9 12 14 17 17 13 12 10 11 12 12 9
2 2 2 2 2 2 2 2 2 2 2 7 8 5 6 10 10 6 8 7 10 11 9 7 5 7 7 9 10 15 16 13 13 11 8 9 10 13 15 18 19 13 8 7 8 15 8
3 3 3 2 2 2 2 2 2 2 2 4 8 7 6 9 8 8 9 9 7 9 10 9 8 8 8 11 12 14 14 10 14 14 14 13 13 14 15 16 14 9 7 7 15 14 8
3 3 3 3 2 2 2 2 2 2 2 4 8 7 7 8 7 6 5 9 9 9 11 8 9 8 9 12 12 12 13 12 13 12 13 14 14 15 14 17 18 7 8 12 9 8 7
3 3 3 3 3 2 2 2 2 2 2 3 8 6 5 7 7 6 5 5 6 6 7 8 8 8 8 11 11 11 12 12 13 15 10 14 12 13 12 14 10 7 8 7 7 7 7